User: anonymous   Login
Location: Albany
(35.0000°S, 118.0000°E)
Time: 13:15:54
(UTC-05:00)
Language:

Atlas Centaur 2 - Orbit

View from above orbital plane
View from above orbital plane
View from above satellite
View from above satellite

Ground track
Ground track

The orbit data is extracted from the following two-line orbital elements,

1 00694U 63047A   18021.45135748  .00000203  00000-0  14201-4 0  9995
2 00694  30.3568  43.9024 0587297 125.3232 240.3720 14.02251784713377
Epoch (UTC): 21 January 2018 10:49:57
Eccentricity: 0.0587297
inclination: 30.3568°
perigee height: 459 km
apogee height: 1312 km
right ascension of ascending node: 43.9024°
argument of perigee: 125.3232°
revolutions per day: 14.02251784
mean anomaly at epoch: 240.3720°
orbit number at epoch: 71337

The dashed part of the orbit path shows where the satellite is in the earth's shadow,  

DLR